• In Austria
  • List of Countries
  • For 7 days
  • Water Temperature
  • Satellite Maps
  • Weather Map
  • News
  • Weather Widgets
  • user-avatar
    Login

    Hourly Weather Córdoba

    Today, 14 November, Wednesday

    Time Temperature Precipitation Wind Pressure Humidity
    00:00 +16°C° 0 mm 2 mps 723 mmHg 46%
    01:00 +16°C° 0 mm 2 mps 722 mmHg 45%
    02:00 +16°C° 0 mm 2 mps 722 mmHg 44%
    03:00 +16°C° 0 mm 2 mps 722 mmHg 42%
    04:00 +16°C° 0 mm 2 mps 722 mmHg 40%
    05:00 +15°C° 0 mm 2 mps 722 mmHg 38%
    06:00 +18°C° 0 mm 2 mps 722 mmHg 35%
    07:00 +20°C° 0 mm 2 mps 723 mmHg 33%
    08:00 +23°C° 0 mm 2 mps 724 mmHg 30%
    09:00 +24°C° 0 mm 2 mps 724 mmHg 28%
    10:00 +26°C° 0 mm 3 mps 724 mmHg 27%
    11:00 +27°C° 0 mm 3 mps 724 mmHg 26%
    12:00 +28°C° 0 mm 3 mps 723 mmHg 25%
    13:00 +29°C° 0 mm 3 mps 723 mmHg 24%
    14:00 +29°C° 0 mm 3 mps 723 mmHg 23%
    15:00 +29°C° 0 mm 3 mps 722 mmHg 25%
    16:00 +28°C° 0 mm 4 mps 722 mmHg 28%
    17:00 +28°C° 0 mm 4 mps 721 mmHg 30%
    18:00 +26°C° 0 mm 3 mps 721 mmHg 36%
    19:00 +24°C° 0 mm 2 mps 721 mmHg 41%
    20:00 +21°C° 0 mm 2 mps 721 mmHg 47%
    21:00 +20°C° 0 mm 2 mps 722 mmHg 48%
    22:00 +20°C° 0 mm 2 mps 722 mmHg 48%
    23:00 +19°C° 0 mm 2 mps 722 mmHg 48%

    Tomorrow, 15 November, Thursday

    Time Temperature Precipitation Wind Pressure Humidity
    00:00 +19°C° 0 mm 2 mps 722 mmHg 49%
    01:00 +18°C° 0 mm 3 mps 721 mmHg 49%
    02:00 +18°C° 0 mm 3 mps 721 mmHg 49%
    03:00 +18°C° 0 mm 3 mps 721 mmHg 49%
    04:00 +18°C° 0 mm 3 mps 720 mmHg 50%
    05:00 +17°C° 0 mm 3 mps 720 mmHg 50%
    06:00 +20°C° 0 mm 4 mps 720 mmHg 46%
    07:00 +22°C° 0 mm 4 mps 721 mmHg 43%
    08:00 +25°C° 0 mm 5 mps 721 mmHg 39%
    09:00 +27°C° 0 mm 5 mps 721 mmHg 36%
    10:00 +29°C° 0 mm 6 mps 721 mmHg 34%
    11:00 +30°C° 0 mm 7 mps 721 mmHg 31%
    12:00 +32°C° 0 mm 7 mps 721 mmHg 31%
    13:00 +33°C° 0 mm 7 mps 720 mmHg 31%
    14:00 +33°C° 0 mm 7 mps 720 mmHg 30%
    15:00 +33°C° 0 mm 6 mps 719 mmHg 32%
    16:00 +33°C° 0 mm 6 mps 719 mmHg 34%
    17:00 +32°C° 0 mm 6 mps 718 mmHg 36%
    18:00 +29°C° 0 mm 5 mps 719 mmHg 42%
    19:00 +27°C° 0 mm 4 mps 720 mmHg 48%
    20:00 +25°C° 0 mm 3 mps 720 mmHg 54%
    21:00 +24°C° 0 mm 2 mps 721 mmHg 56%
    22:00 +23°C° 0 mm 2 mps 722 mmHg 58%
    23:00 +21°C° 0 mm 2 mps 723 mmHg 61%

    Day after tomorrow, 16 November, Friday

    Time Temperature Precipitation Wind Pressure Humidity
    00:00 +21°C° 0 mm 2 mps 723 mmHg 63%
    01:00 +20°C° 0 mm 2 mps 723 mmHg 66%
    02:00 +20°C° 0 mm 3 mps 723 mmHg 68%
    03:00 +19°C° 0 mm 3 mps 723 mmHg 72%
    04:00 +19°C° 0 mm 3 mps 723 mmHg 75%
    05:00 +18°C° 0 mm 4 mps 723 mmHg 78%
    06:00 +19°C° 0 mm 4 mps 723 mmHg 76%
    07:00 +20°C° 0 mm 4 mps 724 mmHg 73%
    08:00 +20°C° 0 mm 3 mps 724 mmHg 70%
    09:00 +22°C° 0 mm 3 mps 724 mmHg 64%
    10:00 +25°C° 0 mm 3 mps 724 mmHg 58%
    11:00 +26°C° 0 mm 3 mps 724 mmHg 52%
    12:00 +28°C° 0 mm 4 mps 723 mmHg 49%
    13:00 +29°C° 0 mm 5 mps 722 mmHg 46%
    14:00 +30°C° 0 mm 6 mps 721 mmHg 43%
    15:00 +29°C° 0 mm 6 mps 721 mmHg 45%
    16:00 +29°C° 0 mm 6 mps 720 mmHg 46%
    17:00 +29°C° 0 mm 6 mps 719 mmHg 48%
    18:00 +27°C° 0 mm 5 mps 719 mmHg 55%
    19:00 +25°C° 0 mm 4 mps 720 mmHg 62%
    20:00 +24°C° 0 mm 3 mps 720 mmHg 69%
    21:00 +22°C° 0 mm 3 mps 720 mmHg 72%
    22:00 +23°C° 0 mm 2 mps 720 mmHg 75%
    23:00 +21°C° 0 mm 2 mps 720 mmHg 78%

    17 November, Saturday

    Time Temperature Precipitation Wind Pressure Humidity
    00:00 +21°C° 0 mm 2 mps 719 mmHg 78%
    01:00 +21°C° 0 mm 2 mps 719 mmHg 78%
    02:00 +20°C° 0 mm 2 mps 718 mmHg 78%
    03:00 +20°C° 0 mm 2 mps 718 mmHg 76%
    04:00 +20°C° 0 mm 2 mps 717 mmHg 75%
    05:00 +20°C° 0 mm 2 mps 717 mmHg 74%
    06:00 +22°C° 0 mm 3 mps 717 mmHg 66%
    07:00 +26°C° 0 mm 3 mps 718 mmHg 59%
    08:00 +28°C° 0 mm 4 mps 718 mmHg 52%
    09:00 +30°C° 0 mm 4 mps 718 mmHg 46%
    10:00 +33°C° 0 mm 5 mps 719 mmHg 40%
    11:00 +35°C° 0 mm 5 mps 719 mmHg 35%
    12:00 +34°C° 0.2 mm 6 mps 719 mmHg 41%
    13:00 +32°C° 0.2 mm 8 mps 719 mmHg 46%
    14:00 +29°C° 0.2 mm 9 mps 718 mmHg 52%
    15:00 +28°C° 0.1 mm 9 mps 719 mmHg 50%
    16:00 +27°C° 0.1 mm 8 mps 719 mmHg 48%
    17:00 +26°C° 0.1 mm 8 mps 719 mmHg 46%
    18:00 +24°C° 0 mm 7 mps 720 mmHg 44%
    19:00 +22°C° 0 mm 6 mps 721 mmHg 43%
    20:00 +20°C° 0 mm 5 mps 721 mmHg 41%
    21:00 +19°C° 0 mm 5 mps 722 mmHg 39%
    22:00 +19°C° 0 mm 5 mps 723 mmHg 37%
    23:00 +17°C° 0 mm 5 mps 723 mmHg 35%

    18 November, Sunday

    Time Temperature Precipitation Wind Pressure Humidity
    00:00 +17°C° 0 mm 4 mps 723 mmHg 36%
    01:00 +15°C° 0 mm 4 mps 723 mmHg 36%
    02:00 +16°C° 0 mm 3 mps 723 mmHg 37%
    03:00 +14°C° 0 mm 3 mps 724 mmHg 38%
    04:00 +14°C° 0 mm 3 mps 724 mmHg 39%
    05:00 +14°C° 0 mm 2 mps 725 mmHg 40%
    06:00 +16°C° 0 mm 2 mps 725 mmHg 39%
    07:00 +17°C° 0 mm 2 mps 726 mmHg 38%
    08:00 +19°C° 0 mm 2 mps 726 mmHg 36%
    09:00 +21°C° 0 mm 2 mps 727 mmHg 33%
    10:00 +23°C° 0 mm 2 mps 727 mmHg 30%
    11:00 +25°C° 0 mm 2 mps 727 mmHg 26%
    12:00 +26°C° 0 mm 3 mps 726 mmHg 26%
    13:00 +27°C° 0 mm 3 mps 726 mmHg 25%
    14:00 +27°C° 0 mm 4 mps 725 mmHg 25%
    15:00 +27°C° 0 mm 4 mps 725 mmHg 27%
    16:00 +27°C° 0 mm 4 mps 724 mmHg 28%
    17:00 +27°C° 0 mm 4 mps 724 mmHg 30%
    18:00 +25°C° 0 mm 4 mps 724 mmHg 35%
    19:00 +22°C° 0 mm 3 mps 724 mmHg 40%
    20:00 +20°C° 0 mm 2 mps 725 mmHg 45%
    21:00 +19°C° 0 mm 2 mps 725 mmHg 46%
    22:00 +18°C° 0 mm 3 mps 725 mmHg 47%
    23:00 +18°C° 0 mm 3 mps 726 mmHg 48%

    19 November, Monday

    Time Temperature Precipitation Wind Pressure Humidity
    00:00 +17°C° 0 mm 3 mps 725 mmHg 48%
    01:00 +17°C° 0 mm 3 mps 725 mmHg 48%
    02:00 +17°C° 0 mm 3 mps 725 mmHg 48%
    03:00 +16°C° 0 mm 3 mps 724 mmHg 49%
    04:00 +16°C° 0 mm 3 mps 724 mmHg 50%
    05:00 +16°C° 0 mm 3 mps 724 mmHg 50%
    06:00 +18°C° 0 mm 4 mps 725 mmHg 47%
    07:00 +20°C° 0 mm 4 mps 725 mmHg 43%
    08:00 +22°C° 0 mm 5 mps 726 mmHg 39%
    09:00 +24°C° 0 mm 6 mps 725 mmHg 37%
    10:00 +27°C° 0 mm 6 mps 725 mmHg 35%
    11:00 +28°C° 0 mm 7 mps 725 mmHg 33%
    12:00 +29°C° 0 mm 7 mps 724 mmHg 33%
    13:00 +30°C° 0 mm 7 mps 723 mmHg 32%
    14:00 +31°C° 0 mm 8 mps 722 mmHg 32%
    15:00 +31°C° 0 mm 8 mps 721 mmHg 33%
    16:00 +29°C° 0 mm 7 mps 721 mmHg 34%
    17:00 +29°C° 0 mm 7 mps 720 mmHg 36%
    18:00 +27°C° 0 mm 6 mps 720 mmHg 40%
    19:00 +25°C° 0 mm 5 mps 721 mmHg 45%
    20:00 +22°C° 0 mm 4 mps 721 mmHg 49%
    21:00 +21°C° 0 mm 4 mps 721 mmHg 51%
    22:00 +20°C° 0 mm 4 mps 721 mmHg 52%
    23:00 +20°C° 0 mm 3 mps 721 mmHg 54%
    Show more